This is the latest recevied weather packets stored in our database for station/object KC0AFB. If no packets are shown the sender has not sent any weather packets the latest 1 day(s).
| Time | Temp. | Humidity | Pressure | Rain* | Wind** | Luminosity | Snow |
|---|---|---|---|---|---|---|---|
| 1778041953 | -0.56° C | 62% | 1017 hPa | 0 mm | - | 0 W/m² | - |
| 1778041652 | 0° C | 61% | 1017 hPa | 0 mm | - | 0 W/m² | - |
| 1778041350 | 0.56° C | 60% | 1017 hPa | 0 mm | - | 0 W/m² | - |
| 1778040745 | 0° C | 61% | 1017 hPa | 0 mm | - | 0 W/m² | - |
| 1778040442 | -0.56° C | 62% | 1016.8 hPa | 0 mm | - | 0 W/m² | - |
| 1778040139 | 0° C | 62% | 1017 hPa | 0 mm | - | 0 W/m² | - |
| 1778039836 | 0° C | 61% | 1017 hPa | 0 mm | - | 0 W/m² | - |
| 1778039533 | 0.56° C | 60% | 1016.9 hPa | 0 mm | - | 0 W/m² | - |
| 1778038927 | 0° C | 62% | 1016.9 hPa | 0 mm | - | 0 W/m² | - |
| 1778038321 | 1.11° C | 57% | 1016.9 hPa | 0 mm | - | 0 W/m² | - |
| 1778038018 | 1.11° C | 57% | 1016.8 hPa | 0 mm | - | 0 W/m² | - |
| 1778037411 | 1.11° C | 58% | 1016.7 hPa | 0 mm | - | 0 W/m² | - |
| 1778037108 | 1.67° C | 57% | 1017 hPa | 0 mm | - | 0 W/m² | - |
| 1778036807 | 1.67° C | 57% | 1016.7 hPa | 0 mm | - | 0 W/m² | - |
| 1778036504 | 1.67° C | 56% | 1016.8 hPa | 0 mm | - | 0 W/m² | - |
| 1778036200 | 1.67° C | 56% | 1016.7 hPa | 0 mm | - | 0 W/m² | - |
| 1778035896 | 1.67° C | 56% | 1016.6 hPa | 0 mm | - | 0 W/m² | - |
| 1778035594 | 2.22° C | 56% | 1016.6 hPa | 0 mm | - | 0 W/m² | - |
| 1778034986 | 2.22° C | 55% | 1016.6 hPa | 0 mm | - | 0 W/m² | - |
| 1778034381 | 2.22° C | 55% | 1016.2 hPa | 0 mm | - | 0 W/m² | - |
| 1778034079 | 2.22° C | 54% | 1016.4 hPa | 0 mm | - | 0 W/m² | - |
| 1778033776 | 2.22° C | 55% | 1016 hPa | 0 mm | - | 0 W/m² | - |
| 1778033473 | 2.22° C | 55% | 1016 hPa | 0 mm | - | 0 W/m² | - |
| 1778033170 | 2.22° C | 55% | 1016.1 hPa | 0 mm | - | 0 W/m² | - |
| 1778032868 | 2.22° C | 55% | 1016.2 hPa | 0 mm | - | 1 W/m² | - |
* Rain latest hour (hover to see other rain measurements)
** Current wind speed in m/s (hover to see current wind gust speed)